Location: Greenhawk Observatory
(37.3417°N, 122.0298°W)
Time: 00:28:13
(UTC-08:00)

Daily predictions for brighter satellites

Satellite Brightness Start Highest point End
(mag) Time Altitude Azimuth Time Altitude Azimuth Time Altitude Azimuth
NOSS 3-1 (C) 4.4 04:26:38 47° N 04:28:51 62° NE 04:37:08 10° SE
Cosmos 2233 Rocket 4.5 04:37:59 51° NNE 04:37:59 51° NNE 04:42:34 10° N
SL-16 R/B 3.9 04:43:26 21° S 04:43:26 21° S 04:45:14 10° S
Cosmos 1538 Rocket 4.3 04:52:10 64° SSE 04:52:10 64° SSE 04:56:38 10° SSE
SeaSat 1 4.0 04:46:41 10° NNE 04:48:49 26° NNE 04:48:49 26° NNE
Cosmos 2221 3.8 04:48:44 10° SSE 04:52:45 39° E 04:56:46 10° NNE
SL-8 R/B 4.3 04:55:14 51° NE 04:55:14 51° NE 04:59:29 10° ESE
DELTA 2 R/B (1) 3.4 04:59:32 85° NNE 04:59:32 85° NNE 05:05:00 10° ENE
Cosmos 2151 4.0 05:06:28 38° SSE 05:06:28 38° SSE 05:09:10 10° S
Meteor 1-16 Rocket 3.9 05:09:50 72° WNW 05:09:50 72° WNW 05:15:00 10° N
Cosmos 1943 4.3 05:12:34 10° N 05:17:54 42° ENE 05:23:16 10° SE
Cosmos 773 Rocket 3.9 05:25:32 40° NW 05:27:22 68° WSW 05:32:37 10° S
Coronas F rocket 4.1 05:27:11 13° NE 05:28:12 16° ENE 05:29:48 10° ESE
Gbstr 26 Del rocket 3.6 05:26:08 35° SW 05:28:27 86° SE 05:34:48 10° NE
Meteor 1-11 4.2 05:23:32 12° NNW 05:28:59 68° W 05:34:42 10° S
Thor Agena Rocket 4.1 05:24:52 10° S 05:29:08 39° WSW 05:29:08 39° WSW
Cosmos 1340 Rocket 2.9 05:32:59 54° SW 05:32:59 54° SW 05:36:25 10° S
Cosmos 389 Rocket 3.9 05:29:41 10° SSE 05:33:08 41° E 05:36:37 10° NNE
Cosmos 2263 Rocket 2.7 05:28:02 10° S 05:33:37 62° ESE 05:39:14 10° NNE
Cosmos 1464 Rocket 3.9 05:27:58 10° S 05:34:17 78° W 05:40:34 10° N
Cosmos 2344 3.8 05:33:50 10° SSW 05:41:29 74° ESE 05:49:47 10° NE
NOSS 3-1 (A) 4.1 05:36:05 21° NW 05:41:39 68° WSW 05:50:01 10° SSE
Cosmos 2112 Rocket 4.3 05:36:36 10° NNW 05:41:57 71° ENE 05:47:16 10° SSE
Cosmos 1603 3.8 05:41:33 28° NW 05:44:17 51° WSW 05:49:45 10° S
Cosmos 1891 Rocket 4.5 05:37:59 10° S 05:44:25 81° W 05:50:56 10° N
COSMO-SKYMED 1 2.5 05:41:08 10° S 05:45:24 58° W 05:48:21 19° NNW
Cosmos 1908 3.7 05:43:13 10° S 05:46:59 59° E 05:50:46 10° NNE
GPS 2-05 Rocket1 3.2 05:47:57 39° SW 05:48:23 42° SSW 05:51:28 10° ESE
Cosmos 1805 Rocket 3.4 05:45:18 10° NNW 05:49:41 73° W 05:54:01 10° S
ATLAS 2AS CENTAUR R/B 3.8 05:42:25 10° NNW 05:50:11 48° NE 05:57:24 10° ESE
Cosmos 2058 3.4 05:50:47 36° W 05:51:05 36° W 05:54:54 10° SSW
CZ-2C R/B 3.9 05:47:46 10° NNE 05:52:00 36° E 05:56:12 10° SSE
CSL-04 Rocket 3.7 05:47:15 10° NNE 05:52:34 81° ESE 05:57:50 10° SSW
NOAA 6 4.5 05:48:12 10° N 05:52:58 37° WNW 05:57:42 10° SW
APEX 2.8 05:56:24 10° SSW 06:00:19 79° WNW 06:03:29 10° NNE
Sich 1 2.9 05:59:14 10° N 06:03:35 81° W 06:07:51 10° S
Tiangong 2 1.9 06:03:10 31° NW 06:03:54 36° NNW 06:06:51 10° ENE
PSLV R/B 3.8 06:05:05 27° NW 06:06:34 46° N 06:09:49 10° E
Cosmos 2228 Rocket 3.1 06:05:34 10° S 06:10:00 85° E 06:14:25 10° N
Cosmos 292 Rocket 4.2 06:07:07 14° NW 06:10:48 40° WSW 06:15:16 10° S
Cosmos 1356 Rocket 3.8 06:07:33 10° NNW 06:11:26 39° W 06:15:21 10° SSW
Cosmos 1626 2.5 06:09:21 10° NNW 06:12:53 41° W 06:16:24 10° SSW
Cosmos 1328 Rocket 3.5 06:08:43 10° S 06:13:03 87° E 06:17:27 10° N
Cosmos 1633 Rocket 2.9 06:08:58 10° NNW 06:13:18 71° W 06:17:35 10° S
Cosmos 1151 Rocket 4.4 06:11:18 10° SSE 06:15:19 42° E 06:19:21 10° NNE
SMAP 3.7 06:13:24 10° NNE 06:18:02 60° E 06:22:36 10° S
Helios 1B rocket 3.9 06:18:12 10° SE 06:21:59 37° ENE 06:25:48 10° N
Meteor 1-28 Rocket 4.1 06:20:06 10° SSW 06:23:21 28° W 06:26:36 10° NW
Cosmos 1515 Rocket 3.6 06:21:10 10° S 06:25:35 88° E 06:30:03 10° N
SeaSat 1 4.3 06:27:25 10° NW 06:28:18 10° NW 06:28:38 10° NW
IRS-1A Rocket 4.3 06:23:44 10° N 06:29:36 73° WNW 06:35:19 10° SSW
Cosmos 1634 Rocket 4.2 06:23:31 10° S 06:29:49 82° E 06:36:06 10° N
SPOT 3 Rocket 4.1 06:25:03 10° NNE 06:30:15 64° ESE 06:35:25 10° S
Cosmos 2221 4.1 06:28:02 10° WSW 06:30:29 15° WNW 06:32:57 10° NW
Cosmos 858 Rocket 4.4 06:28:02 10° SSW 06:33:11 66° WNW 06:38:21 10° NNE
Ariane Rocket 3.6 06:28:45 10° N 06:33:17 33° WNW 06:37:48 10° SW
CZ-4 R/B 1.5 06:34:15 10° N 06:38:18 59° WNW 06:42:22 10° SSW
YAOGAN 1 2.6 06:34:30 10° NNE 06:38:51 89° ESE 06:43:09 10° SSW
AQUARIUS 4.1 06:35:32 10° N 06:40:02 76° WNW 06:44:32 10° SSW
Cosmos 990 Rocket 4.0 06:34:58 10° SSW 06:40:08 90° W 06:45:23 10° NNE
SJ-12 4.0 06:37:43 10° N 06:41:41 51° WNW 06:45:36 10° SSW
Milstar 3 Cent rocket 3.8 06:36:54 10° WSW 06:44:04 33° S 06:48:41 10° ESE
ATLAS 3B CENTAUR R/B 4.5 06:38:33 10° SW 06:45:00 49° SSE 07:02:49 10° E
Cosmos 192 4.4 06:40:54 10° NNW 06:45:50 67° WSW 06:50:44 10° S
DELTA 2 R/B (1) 3.7 06:40:33 10° W 06:46:05 71° N 06:51:39 10° E
Cosmos 1898 Rocket 3.9 06:41:51 10° SW 06:46:50 43° WNW 06:51:53 10° N
Nadezhda 4 Rocket 4.4 06:44:16 10° NNW 06:50:06 41° W 06:55:53 10° SSW
